This is the latest recevied weather packets stored in our database for station/object N5CSU. If no packets are shown the sender has not sent any weather packets the latest 10 day(s).
| Time | Temp. | Humidity | Pressure | Rain* | Wind** | Luminosity | Snow |
|---|---|---|---|---|---|---|---|
| 1778069796 | 13.89° C | 80% | 1012.8 hPa | 0 mm | - | 1 W/m² | - |
| 1778069492 | 13.89° C | 80% | 1012.7 hPa | 0 mm | - | 1 W/m² | - |
| 1778069190 | 13.89° C | 79% | 1013.1 hPa | 0 mm | - | 1 W/m² | - |
| 1778068887 | 13.89° C | 80% | 1013 hPa | 0 mm | - | 0 W/m² | - |
| 1778068586 | 13.89° C | 79% | 1012.9 hPa | 0 mm | - | 0 W/m² | - |
| 1778068284 | 13.89° C | 79% | 1012.7 hPa | 0 mm | - | 0 W/m² | - |
| 1778067981 | 13.89° C | 79% | 1012.7 hPa | 0 mm | - | 0 W/m² | - |
| 1778067679 | 13.89° C | 80% | 1012.4 hPa | 0 mm | - | 0 W/m² | - |
| 1778067377 | 13.89° C | 79% | 1012.3 hPa | 0 mm | - | 0 W/m² | - |
| 1778067074 | 13.89° C | 79% | 1012 hPa | 0 mm | - | 0 W/m² | - |
| 1778066770 | 14.44° C | 78% | 1012.2 hPa | 0 mm | - | 0 W/m² | - |
| 1778066468 | 14.44° C | 79% | 1012.1 hPa | 0 mm | - | 0 W/m² | - |
| 1778066165 | 14.44° C | 78% | 1012.1 hPa | 0 mm | - | 0 W/m² | - |
| 1778065863 | 14.44° C | 78% | 1012 hPa | 0 mm | - | 0 W/m² | - |
| 1778065560 | 14.44° C | 79% | 1011.8 hPa | 0 mm | - | 0 W/m² | - |
| 1778065257 | 14.44° C | 81% | 1011.7 hPa | 0 mm | - | 0 W/m² | - |
| 1778064953 | 14.44° C | 78% | 1011.7 hPa | 0 mm | - | 0 W/m² | - |
| 1778064650 | 14.44° C | 80% | 1011.7 hPa | 0 mm | - | 0 W/m² | - |
| 1778064349 | 15° C | 80% | 1011.4 hPa | 0 mm | - | 0 W/m² | - |
| 1778064046 | 15° C | 79% | 1011.3 hPa | 0 mm | - | 0 W/m² | - |
| 1778063743 | 15° C | 79% | 1011.2 hPa | 0 mm | - | 0 W/m² | - |
| 1778063439 | 15° C | 81% | 1011.3 hPa | 0 mm | - | 0 W/m² | - |
| 1778063138 | 15° C | 79% | 1011.1 hPa | 0 mm | - | 0 W/m² | - |
| 1778062835 | 15° C | 78% | 1010.9 hPa | 0 mm | - | 0 W/m² | - |
| 1778062532 | 15° C | 80% | 1010.9 hPa | 0 mm | - | 0 W/m² | - |
* Rain latest hour (hover to see other rain measurements)
** Current wind speed in m/s (hover to see current wind gust speed)